Weather in Zharikovo

Russia / Primorsky Krai     44°35′49″N   131°42′37″E
temp.,
°C
wind,
m/s
gust,
m/s
humid.,
%
clouds,
%
prec.,
mm/h
press.,
hPa
HPBL,
m
10 may, mon
mon1001:00+8nw4989100 0.1 1006453
04:00+8nw388896 0.3 1007413
07:00+8nw4886100 0.0 1009725
10:00+9nw3783100 0.1 10101162
13:00+10nw3677100 0.1 10121166
16:00+9nw4682100 0.3 1012968
19:00+7nw4788100 0.6 1013496
22:00+7nw2688100 0.6 1015358
11 may, tue
tue1101:00+7wnw2488100 0.0 1015139
04:00+7nw2389100 0.0 101585
07:00+7nnw118898 0.0 101743
10:00+8e1184100 0.1 1018279
13:00+12se216625 0.0 1018884
16:00+15ese225287 0.1 10161592
19:00+14se34601 0.0 1016516
22:00+9sse3880100 0.0 1018250
12 may, wed
wed1201:00+7s51483100 0.0 1018514
04:00+6s61488100 0.0 1017534
07:00+7s71584100 0.0 1017657
10:00+9s101577100 0.0 1015892
13:00+11s101676100 0.0 1013921
16:00+12s91577100 0.4 10121031
19:00+8s91793100 4.0 1012667
22:00+8ssw7159369 4.1 1014514
13 may, thu
thu1301:00+7ssw6139529 0.0 1013367
04:00+7ssw5119741 0.0 1013257
07:00+7ssw5109636 0.0 1013263
10:00+13ssw67751 0.0 1012462
13:00+20s685183 0.0 10111289
16:00+20s785278 0.0 1010862
19:00+16s41072100 0.0 1010377
22:00+11ssw3681100 0.0 1011163
14 may, fri
fri1401:00+9ssw34865 0.0 101182
04:00+8ssw34885 0.0 101178
07:00+9s36865 0.0 1011169
10:00+14s5761100 0.0 1009518
13:00+18s7954100 0.0 1007866
16:00+17s91463100 0.0 1004795
19:00+11s61492100 4.8 1004396
22:00+11s71593100 5.4 1003432